Weather History for Homer, AK

Change the Weather History Date:

Tuesday, June 26, 2012

  Actual Average Record
Temperature  
Mean Temperature 48 °F -  
Max Temperature 53 °F 58 °F 72 °F (2013)
Min Temperature 44 °F 44 °F 34 °F (1957)
Degree Days  
Heating Degree Days 17    
Moisture  
Dew Point 43 °F    
Average Humidity 88    
Maximum Humidity 100    
Minimum Humidity 68    
Precipitation  
Precipitation 0.02 in - - ()
Sea Level Pressure  
Sea Level Pressure 29.58 in    
Wind  
Wind Speed 6 mph (WSW)    
Max Wind Speed 10 mph    
Max Gust Speed -    
Visibility 10 miles    
Events Rain    
Averages and records for this station are not official NWS values.
T = Trace of Precipitation, MM = Missing Value Source: NWS Daily Summary

Daily Weather History Graph

Daily Weather History Graph

Search for Another Location

Airport:

Trip Planner

Search our weather history database for the weather conditions in past years. The results will help you decide how hot, cold, wet, or windy it might be!

Date:

Astronomy

Jun. 26, 2012 Rise Set
Actual Time 4:48 AM AKDT 11:29 PM AKDT
Civil Twilight 3:12 AM AKDT 1:04 AM AKDT
Nautical Twilight Sun does not rise Sun does not rise
Astronomical Twilight Sun does not rise Sun does not rise
Moon 2:27 PM AKDT (6/26) 1:02 AM AKDT (6/26)
Length of Visible Light 21h 51m
Length of Day
18h 41m
Waxing Crescent, 46% of the Moon is Illuminated
Jun 26
Waxing Crescent
Jun 26
First Quarter
Jul 3
Full
Jul 10
Last Quarter
Jul 18
New

Hourly Weather History & Observations

Time (AKDT) Temp. Windchill Dew Point Humidity Pressure Visibility Wind Dir Wind Speed Gust Speed Precip Events Conditions
12:53 AM 45.0 °F 42.6 °F 44.1 °F 97% 29.53 in 10.0 mi WSW 4.6 mph - 0.00 in   Overcast
1:53 AM 45.0 °F 41.2 °F 44.1 °F 97% 29.54 in 10.0 mi West 6.9 mph - 0.02 in Rain Light Rain
2:53 AM 44.1 °F - 44.1 °F 100% 29.53 in 10.0 mi North - - 0.00 in   Overcast
3:53 AM 44.1 °F - 43.0 °F 96% 29.54 in 10.0 mi North - - N/A   Overcast
4:23 AM 44.6 °F 43.1 °F 44.6 °F 100% 29.54 in 10.0 mi WSW 3.5 mph - N/A   Overcast
4:46 AM 44.6 °F 42.2 °F 44.6 °F 100% 29.54 in 10.0 mi WSW 4.6 mph - N/A   Overcast
4:53 AM 44.1 °F 42.5 °F 44.1 °F 100% 29.54 in 10.0 mi WSW 3.5 mph - N/A   Overcast
5:53 AM 44.1 °F 40.8 °F 44.1 °F 100% 29.55 in 10.0 mi WSW 5.8 mph - N/A   Overcast
5:58 AM 44.6 °F 41.4 °F 44.6 °F 100% 29.55 in 10.0 mi WSW 5.8 mph - N/A   Overcast
6:53 AM 44.1 °F 40.1 °F 43.0 °F 96% 29.55 in 10.0 mi WSW 6.9 mph - N/A   Overcast
7:53 AM 44.1 °F 40.1 °F 43.0 °F 96% 29.56 in 10.0 mi WSW 6.9 mph - N/A   Overcast
8:53 AM 45.0 °F 41.8 °F 44.1 °F 97% 29.57 in 10.0 mi SW 5.8 mph - N/A   Overcast
9:53 AM 45.0 °F 41.8 °F 44.1 °F 97% 29.57 in 10.0 mi WSW 5.8 mph - N/A   Overcast
10:53 AM 46.9 °F - 43.0 °F 86% 29.58 in 10.0 mi SW 3.5 mph - N/A   Overcast
11:38 AM 48.2 °F - 44.6 °F 87% 29.58 in 10.0 mi SW 8.1 mph - N/A   Overcast
11:53 AM 46.9 °F - 43.0 °F 86% 29.59 in 10.0 mi SW 5.8 mph - N/A   Overcast
12:53 PM 50.0 °F - 44.1 °F 80% 29.59 in 10.0 mi SSW 6.9 mph - N/A   Scattered Clouds
1:53 PM 48.9 °F - 44.1 °F 83% 29.59 in 10.0 mi WSW 9.2 mph - N/A   Overcast
2:53 PM 50.0 °F - 45.0 °F 83% 29.60 in 10.0 mi WSW 9.2 mph - N/A   Mostly Cloudy
3:53 PM 52.0 °F - 44.1 °F 74% 29.61 in 10.0 mi West 9.2 mph - N/A   Mostly Cloudy
4:53 PM 52.0 °F - 42.1 °F 69% 29.62 in 10.0 mi West 9.2 mph - N/A   Mostly Cloudy
5:53 PM 52.0 °F - 43.0 °F 71% 29.62 in 10.0 mi West 9.2 mph - N/A   Scattered Clouds
6:53 PM 51.1 °F - 41.0 °F 68% 29.62 in 10.0 mi West 9.2 mph - N/A   Scattered Clouds
7:53 PM 50.0 °F - 42.1 °F 74% 29.62 in 10.0 mi West 10.4 mph - N/A   Scattered Clouds
8:53 PM 48.9 °F - 44.1 °F 83% 29.62 in 10.0 mi West 9.2 mph - N/A   Mostly Cloudy
9:53 PM 48.9 °F - 42.1 °F 77% 29.63 in 10.0 mi WNW 4.6 mph - N/A   Mostly Cloudy
10:53 PM 48.0 °F - 41.0 °F 77% 29.63 in 10.0 mi Calm Calm - N/A   Overcast
11:53 PM 48.0 °F - 42.1 °F 80% 29.64 in 10.0 mi Calm Calm - N/A   Overcast